Location: *
(47.2969°N, 10.2930°E)
Time: 13:40:51
(UTC+00:00)

CZ-4C R/B - Pass Details

Date: 09 April 2020
Orbit: 637 x 1364 km, 63.4° (Epoch: 25 May)

Event Time Altitude Azimuth Distance (km) Brightness Sun altitude
Rises 20:50:10 0° 320° (NW) 3,748 6.9 -25.5°
Reaches altitude 10° 20:52:39 10° 323° (NW) 2,895 6.0 -25.8°
Maximum altitude 20:59:38 64° 45° (NE) 1,315 3.1 -26.5°
Enters shadow 21:01:47 48° 102° (ESE) 1,578 3.2 -26.8°
